sat.trackr.live / text

‹ back to catalog

STARLINK-34656

NORAD 65032 · 2025-161T

PAYLOAD ACTIVE UNKNOWN

§ Identity

Operator
Country
US
Launch date
2025-07-30
Launch site
AFWTR
Launch vehicle
Mass (kg)
RCS (m²)

Purposes: comms

External: N2YO · Heavens-Above · Gunter

§ Orbital elements

Epoch: 2026-05-25T03:42:24.414336Z

Period
94.10 min
Inclination
53.1601°
Eccentricity
0.0000971
Mean motion
15.30209444 rev/d
Perigee alt
474.5 km
Apogee alt
475.9 km
Semi-major
6,853.3 km
B*
4.6015e-4
RAAN
299.2635°
Arg perigee
97.0061°
Mean anomaly
263.1050°
Rev number
4,703

§ Raw data

STARLINK-346561 65032U 25161T   26145.15444924  .00013298  00000+0  46015-3 0  99932 65032  53.1601 299.2635 0000971  97.0061 263.1050 15.30209444 47033

JSON: /api/v1/satellites/65032 · /tle

For live sub-satellite position, see the globe view (requires WebGL).

§ Visibility from observer

Set your observer location to see the next 7 days of passes ≥ 10°. The values pass through the URL so the page stays shareable.

No JS? Fill the form by hand. The geolocation button needs JavaScript.